Powrót do katalogu

COSMOS 2251 DEB

AktywnyLEO
NORAD 38212·DEBRIS·🇷🇺 Russia

Wystrzelony Jun 16, 1993 z Plesetsk Cosmodrome

Loading…

Następne Przeloty (najbliższe 24 godziny)

TLE

Starzejące sięSource: Space-Track

Epoka: Sep 11, 2026, 10:28 UTC

1 38212U 93036BTC 26254.43615490  .00001458  00000-0  18813-3 0  9990
2 38212  74.0474 261.1206 0093019 255.7967 103.2863 14.79069845853401

Śledź COSMOS 2251 DEB w czasie rzeczywistym z AllMySat

Download on the App Store